TimeEDT,TemperatureF,Dew PointF,Humidity,Sea Level PressureIn,VisibilityMPH,Wind Direction,Wind SpeedMPH,Gust SpeedMPH,PrecipitationIn,Events,Conditions,WindDirDegrees,DateUTC
12:53 AM,55.9,46.9,72,30.01,10.0,WNW,10.4,18.4,N/A,,Overcast,300,2013-09-15 04:53:00
1:49 AM,55.4,46.4,72,30.00,10.0,Calm,Calm,-,N/A,,Overcast,0,2013-09-15 05:49:00
1:53 AM,55.0,46.9,74,30.02,10.0,Calm,Calm,-,N/A,,Overcast,0,2013-09-15 05:53:00
2:53 AM,53.1,46.9,80,30.02,10.0,Calm,Calm,-,N/A,,Clear,0,2013-09-15 06:53:00
3:53 AM,52.0,46.9,83,30.03,10.0,Calm,Calm,-,N/A,,Clear,0,2013-09-15 07:53:00
4:53 AM,52.0,48.0,86,30.04,10.0,Calm,Calm,-,N/A,,Partly Cloudy,0,2013-09-15 08:53:00
5:53 AM,48.9,46.0,90,30.05,10.0,Calm,Calm,-,N/A,,Clear,0,2013-09-15 09:53:00
6:53 AM,48.9,46.9,93,30.07,10.0,Calm,Calm,-,N/A,,Clear,0,2013-09-15 10:53:00
7:53 AM,55.0,48.0,77,30.07,10.0,Calm,Calm,-,N/A,,Clear,0,2013-09-15 11:53:00
8:53 AM,57.9,46.9,67,30.08,10.0,Variable,5.8,-,N/A,,Clear,0,2013-09-15 12:53:00
9:53 AM,61.0,43.0,52,30.08,10.0,WSW,5.8,-,N/A,,Clear,250,2013-09-15 13:53:00
10:53 AM,63.0,43.0,48,30.07,10.0,Variable,3.5,-,N/A,,Clear,0,2013-09-15 14:53:00
11:53 AM,64.0,46.0,52,30.06,10.0,Variable,3.5,-,N/A,,Scattered Clouds,0,2013-09-15 15:53:00
12:53 PM,66.9,44.1,44,30.03,10.0,Variable,4.6,-,N/A,,Clear,0,2013-09-15 16:53:00
1:53 PM,68.0,45.0,43,30.01,10.0,WNW,5.8,-,N/A,,Clear,290,2013-09-15 17:53:00
2:53 PM,68.0,46.9,47,30.02,10.0,West,8.1,-,N/A,,Scattered Clouds,280,2013-09-15 18:53:00
3:53 PM,66.0,46.9,50,30.01,10.0,Variable,6.9,17.3,N/A,,Mostly Cloudy,0,2013-09-15 19:53:00
4:53 PM,66.0,48.0,52,30.01,10.0,West,8.1,-,N/A,,Clear,270,2013-09-15 20:53:00
5:53 PM,64.0,48.0,56,30.01,10.0,Variable,5.8,-,N/A,,Clear,0,2013-09-15 21:53:00
6:53 PM,59.0,52.0,78,30.01,10.0,Calm,Calm,-,N/A,,Mostly Cloudy,0,2013-09-15 22:53:00
7:53 PM,55.9,51.1,84,30.00,10.0,Calm,Calm,-,N/A,,Clear,0,2013-09-15 23:53:00
8:53 PM,57.0,50.0,77,30.01,10.0,Calm,Calm,-,N/A,,Clear,0,2013-09-16 00:53:00
9:53 PM,57.0,50.0,77,30.00,10.0,Calm,Calm,-,N/A,,Clear,0,2013-09-16 01:53:00
10:53 PM,57.0,50.0,77,29.99,10.0,Calm,Calm,-,N/A,,Clear,0,2013-09-16 02:53:00
11:53 PM,57.0,50.0,77,29.99,10.0,West,3.5,-,N/A,,Partly Cloudy,260,2013-09-16 03:53:00